Showing default

NUSAT-49(K.VON NEUMANN), 60500

Orbit data source: Space-Track

NUSAT-49(K.VON NEUMANN), 60500 is a payload satellite owned by URUGUS S.A. (AR) in SSO that was launched on Fri, 16 Aug 2024 UTC via an FALCON 9 launch vehicle from the Air Force Western Test Range (AFWTR). Payload-class satellites include a variety of spacecraft equipped with specific instruments for various scientific and technological missions. These include communications satellites like Starlink; space stations such as the ISS; scientific satellites like the Hubble; Earth observation satellites from companies like Planet Labs, Umbra, and HawkEye 360; GPS; miniature CubeSats for education and research; and military/defense satellites.

Loading next visibility...
Identifier
60500, 2024-149AJ
Orbit
SSO
Last TLE update
12 hours ago
Origin
Manufacturer
URUGUS S.A.
Mission
Operational Commercial Imaging
Bus & Motor
NEWSAT V, Unknown motor
Mass
41.5 kg wet, 38.5 kg dry
Launch date (UTC)
2024-08-16 (11 months ago)
Launch vehicle
FALCON 9
Launch site
Air Force Western Test Range (AFWTR)
Object type
Payload
Rocket body
Debris
Shape & HBR
Box, 0.813 m
Radar Cross Section
0.542 m², Medium (>0.1 m² and < 1m²)

Expand to show TLE details & history

TLE from 12 hours ago
0 NUSAT-49(K.VON NEUMANN)
1 60500U 24149AJ  25182.73871142  .00007064  00000-0  26030-3 0  9993
2 60500  97.4088 260.8933 0005615  86.2107 273.9774 15.28117813 48559
Epoch: 2025-07-01T17:43Z
TLE epoch observation values (Epoch: 2025-07-01T17:43:44.666Z)
Latitude
-0.00008°
Longitude
74.92735°
Altitude
484.275 km
Speed
7.623 km/s
True Right ascension
17h 23m 34s
True Declination
0° 00' 00"
Sunlit
Object was in full shadow at epoch
Visualization orbit readout
Latitude
38.33173°
Longitude
-98.72303°
Altitude
484.753 km
Speed
7.628 km/s
Apparent Right ascension
05h 26m 45s
Apparent Declination
0° 55' 09"
Sunlit
Object is in daylight
Visualization observer readout
Local Sidereal Time
17:02:19
Azimuth
350.704° N
Elevation
-48.785°
Doppler factor
1
Orbital elements
Apogee altitude
482.244 km
Perigee altitude
474.544 km
Semi-major axis
6,856.531 km
Eccentricity
0.00056
Inclination
97.4088°
RAAN
260.8933°
Arg. of periapsis
86.2107°
True anomaly
Unknown
Mean anomaly
273.9774°
Eccentric anomaly
Unknown
Mean motion
3.82284 °/min
Orbital period
94.17 mins
BSTAR
0.0002603
Loading maneuver chart data...
Loading SW <> Apogee altitude chart data...
Loading historical data...
Loading historical data...
Loading historical data...
Loading historical data...
Loading historical data...
Loading historical data...
Loading historical data...

NUSAT-49(K.VON NEUMANN) Visibility forecast

Observer location: undefined°, undefined°

Span
Click to sort rows by Start time (UTC) header in descending order
Start Az.
Max El. time (UTC)
Max El. Az.
Max El.
End time (UTC)
End Az.
5 mins2025-07-02 17:52:46.098Z28.539° NE2025-07-02 17:54:46.098Z96.524° ESE39.624°2025-07-02 17:57:46.098Z177.656° S
|